User: anonymous   Login
Location: Melbourne
(37.8170°S, 144.9670°E)
Time: 20:28:16
(UTC+10:00)
Language:

ERBS - Orbit

View from above orbital plane
View from above orbital plane
View from above satellite
View from above satellite

Ground track
Ground track

The orbit data is extracted from the following two-line orbital elements,

1 15354U 84108B   15125.38437484  .00007314  00000-0  22027-3 0  9995
2 15354 057.0116 212.2313 0019164 080.9518 279.3701 15.35267757678981
Epoch (UTC): 05 May 2015 09:13:29
Eccentricity: 0.0019164
inclination: 57.0116°
perigee height: 447 km
apogee height: 473 km
right ascension of ascending node: 212.2313°
argument of perigee: 80.9518°
revolutions per day: 15.35267757
mean anomaly at epoch: 279.3701°
orbit number at epoch: 67898

The dashed part of the orbit path shows where the satellite is in the earth's shadow,  

DLR